Location: LewisvilleTX
(33.0462°N, 96.9942°W)
Time: 22:13:51
(UTC+00:00)

Envisat - Pass Details

Date: 01 October 2020
Orbit: 764 x 766 km, 98.1° (Epoch: 26 October)

Event Time Altitude Azimuth Distance (km) Brightness Sun altitude
Rises 00:56:32 0° 207° (SSW) 3,217 6.6 -9.9°
Reaches altitude 10° 00:59:42 10° 228° (SW) 2,296 6.2 -10.6°
Maximum altitude 01:02:47 16° 266° (W) 1,902 6.3 -11.3°
Drops below altitude 10° 01:05:54 10° 305° (NW) 2,304 6.5 -11.9°
Sets 01:09:06 0° 326° (NW) 3,235 6.8 -12.6°
